Regional Weather Roundup
Issued by NWS

Home | Current Version | Previous Version | Graphics & Text | Print | Product List | Glossary On
Versions: 1 2 3 4 5 6 7 8 9 10 11 12 13 14 15 16 17 18 19 20 21 22 23 24 25 26 27 28 29 30 31 32 33 34 35 36 37 38 39 40 41 42 43 44 45 46 47 48 49 50
000
ASUS44 KMEG 170510
RWRTN
TENNESSEE HOURLY STATE WEATHER ROUNDUP
NATIONAL WEATHER SERVICE MEMPHIS TN
1200 AM CDT TUE OCT 17 2017

TNZ002-004-019-021-049-052-054-088>092-170600-
WEST TENNESSEE

CITY           SKY/WX    TMP DP  RH WIND       PRES   REMARKS
MEMPHIS INTL   CLEAR     53  41  63 NE10      30.31R
NWS MEMPHIS      N/A     47 N/A N/A MISG        N/A
JACKSON        CLEAR     45  43  93 CALM      30.32S
COVINGTON      CLEAR     43  39  87 CALM      30.31F
UNION CITY     CLEAR     43  43 100 CALM      30.32S
PARIS          CLEAR     43  43 100 CALM      30.31S
HUNTINGDON     CLEAR     45  41  87 CALM      30.31S
LEXINGTON      CLEAR     43  43 100 CALM      30.31S
SELMER         CLEAR     45  43  93 NE3       30.30S
SAVANNAH       CLEAR     43  43 100 CALM      30.30S
$$

TNZ008-025-027-028-033-062-065-066-170600-
NORTH MIDDLE TENNESSEE

CITY           SKY/WX    TMP DP  RH WIND       PRES   REMARKS
NASHVILLE      CLEAR     48  42  80 CALM      30.32S
PORTLAND       CLEAR     45  43  93 CALM      30.31S
CLARKSVILLE    CLEAR     44  41  89 CALM      30.32S
SMYRNA         CLEAR     47  42  83 CALM      30.32S
COOKEVILLE     CLEAR     39  39 100 CALM      30.30S
GALLATIN       CLEAR     50  41  71 CALM      30.34S
CROSSVILLE     CLEAR     45  38  76 NE6       30.30F
$$

TNZ061-075-076-078-094-096-097-170600-
SOUTH MIDDLE TENNESSEE

CITY           SKY/WX    TMP DP  RH WIND       PRES   REMARKS
FAYETTEVILLE   CLEAR     48  43  81 NE5       30.27F
TULLAHOMA      CLEAR     48  39  71 CALM      30.30S
WINCHESTER     CLEAR     46  39  76 E5          N/A
COLUMBIA       CLEAR     45  43  93 CALM      30.29S
SHELBYVILLE    CLEAR     43  41  93 CALM      30.30R
$$

TNZ017-018-042-046-047-170600-
NORTHEAST TENNESSEE

CITY           SKY/WX    TMP DP  RH WIND       PRES   REMARKS
TRI CITIES     CLEAR     42  41  96 CALM      30.31S
ELIZABETHTON   CLEAR     41  39  93 CALM      30.32S
$$

TNZ012-013-036-069-073-074-170600-
CENTRAL EAST TENNESSEE

CITY           SKY/WX    TMP DP  RH WIND       PRES   REMARKS
KNOXVILLE      CLEAR     48  43  82 NE5       30.28F
OAK RIDGE      CLEAR     46  45  96 CALM      30.31S
DOWNTOWN KNOXV CLEAR     46  45  93 CALM      30.30F
GATLINBURG     CLEAR     45  43  93 CALM      30.30S
MORRISTOWN     CLEAR     46  41  81 CALM      30.30S
JACKSBORO      CLEAR     43  41  93 CALM      30.35S
$$

TNZ083-085-099-170600-
SOUTHEAST TENNESSEE

CITY           SKY/WX    TMP DP  RH WIND       PRES   REMARKS
CHATTANOOGA    CLEAR     51  43  74 E5        30.29R
DAYTON         CLEAR     46  45  93 CALM      30.28S
$$

SKY/WX REPORTED AS FAIR MEANS FEW OR NO CLOUDS BELOW
12 THOUSAND FEET.





USA.gov is the U.S. government's official web portal to all federal, state and local government web resources and services.